Location: Brad
(46.1333°N, 22.7833°E)
Time: 10:28:44
(UTC+00:00)

Cosmos 1606 Rocket - Pass Details

Date: 03 February 2023
Orbit: 602 x 629 km, 82.5° (Epoch: 31 March)

Event Time Altitude Azimuth Distance (km) Brightness Sun altitude
Rises 16:51:46 0° 350° (N) 2,867 7.0 -13.3°
Reaches altitude 10° 16:53:59 10° 350° (N) 1,959 6.1 -13.7°
Maximum altitude 16:58:19 86° 261° (W) 612 3.5 -14.4°
Drops below altitude 10° 17:02:38 10° 174° (S) 1,950 6.1 -15.2°
Sets 17:04:50 0° 174° (S) 2,852 7.0 -15.6°
